Regional Weather Roundup
Issued by NWS Boston, MA

Home | Current Version | Previous Version | Text Only | Print | Product List | Glossary On
Versions: 1 2 3 4 5 6 7 8 9 10 11 12 13 14 15 16 17 18 19 20 21 22 23 24 25 26 27 28
000
ASUS41 KBOX 211110
RWRBOX

REGIONAL WEATHER ROUNDUP
NATIONAL WEATHER SERVICE TAUNTON MA
600 AM EST SAT JAN 21 2017

NOTE:  "FAIR" INDICATES FEW OR NO CLOUDS BELOW 12,000 FEET WITH NO
SIGNIFICANT WEATHER AND/OR OBSTRUCTIONS TO VISIBILITY.

MAZALL-211200-
EASTERN MASSACHUSETTS

CITY           SKY/WX    TMP DP  RH WIND       PRES   REMARKS
BOSTON         CLOUDY    38  38 100 S5        29.86F
BEVERLY        CLOUDY    38  37  97 S5        29.85F FOG
LAWRENCE       CLOUDY    36  36 100 S5        29.86F FOG
BEDFORD        CLOUDY    37  34  89 SE5       29.83F
BLUE HILL        N/A     36  36 100 S8        29.83S WCI  30
NORWOOD        CLOUDY    39  37  92 CALM      29.86F
MARSHFIELD     CLOUDY    39  36  87 CALM      29.87S
PLYMOUTH       CLOUDY    39  36  89 VRB3      29.87S
TAUNTON        CLOUDY    41  37  86 CALM      29.86S
NEW BEDFORD    CLOUDY    42  39  89 CALM      29.86F
$$

MAZALL-211200-
CAPE COD AND THE ISLANDS

CITY           SKY/WX    TMP DP  RH WIND       PRES   REMARKS
FALMOUTH         N/A     39  37  93 MISG      29.88S
HYANNIS        CLOUDY    40  35  83 S5        29.87S
CHATHAM        CLOUDY    42  36  79 S3        29.89F
PROVINCETOWN   CLOUDY    40  35  83 S6        29.88F
NANTUCKET      CLOUDY    43  38  82 S5        29.88F
MARTHAS VNYRD  CLOUDY    42  38  85 SE6       29.87F
$$

MAZALL-211200-
CENTRAL AND WESTERN MASSACHUSETTS

CITY           SKY/WX    TMP DP  RH WIND       PRES   REMARKS
WORCESTER      FOG       34  33  96 SW8       29.81F VSB 1/4 WCI  27
FITCHBURG      CLOUDY    36  35  96 S6        29.83F FOG     WCI  31
ORANGE         FOG       33  33 100 CALM      29.83S VSB 1/4
SPRINGFIELD    FOG       37  36  93 S5        29.84R VSB 3/4
WESTFIELD      FOG       36  36 100 S3        29.85S VSB 1/2
NORTH ADAMS    CLOUDY    36  33  89 CALM      29.83S
PITTSFIELD     CLOUDY    34  33  96 CALM      29.81S FOG
$$

RIZALL-211200-
RHODE ISLAND

CITY           SKY/WX    TMP DP  RH WIND       PRES   REMARKS
PROVIDENCE     CLOUDY    40  38  93 S3        29.86F
NEWPORT        CLOUDY    42  42 100 CALM      29.86F FOG
SMITHFIELD     CLOUDY    39  37  92 CALM      29.85S
WESTERLY       CLOUDY    43  39  86 SW6       29.88R FOG
$$

CTZALL-211200-
CONNECTICUT

CITY           SKY/WX    TMP DP  RH WIND       PRES   REMARKS
BRADLEY INTL   CLOUDY    38  37  97 S8        29.86S FOG
HARTFORD       CLOUDY    38  38 100 S3        29.87S FOG
BRIDGEPORT     CLOUDY    42  39  89 SW5       29.87F FOG
DANBURY        CLOUDY    39  38  96 W3        29.86F FOG
GROTON         CLOUDY    42  40  92 W6        29.87S
NEW HAVEN      CLOUDY    39  38  96 SW5       29.88R FOG
CHESTER        FOG       41  39  93 VRB5      29.86S VSB 1/2
MERIDEN        FOG       40  38  93 S3        29.88R VSB 1/2
WILLIMANTIC    CLOUDY    38  37  97 CALM      29.87S FOG
OXFORD         CLOUDY    37  36  93 W3        29.86S VSB<1/4
$$

MEZ002-015-021-024-NHZ003-005-008-011-012-014-VTZ005-008-211200-
NORTHERN NEW ENGLAND

CITY           SKY/WX    TMP DP  RH WIND       PRES   REMARKS
PORTLAND ME    CLOUDY    36  30  79 SW5       29.83F
BANGOR ME      CLOUDY    33  29  85 S3        29.83F
CONCORD NH     CLOUDY    34  30  85 CALM      29.82F
MANCHESTER NH  NOT AVBL
NASHUA NH      NOT AVBL
PORTSMOUTH NH  CLOUDY    36  33  90 CALM      29.83S FOG
JAFFREY NH     NOT AVBL
KEENE NH       NOT AVBL
BURLINGTON VT  CLOUDY    37  35  92 S6        29.81S FOG
MT. WASHINGTON MOCLDY    27  21  80 NW40G46     N/A  WCI   8
$$

NYZ052-076-211200-
EASTERN NEW YORK

CITY           SKY/WX    TMP DP  RH WIND       PRES   REMARKS
ALBANY         DRIZZLE   38  35  89 S7        29.85R FOG
NEW YORK CITY  CLOUDY    45  41  86 SW6       29.88F
$$

ANZALL-211200-
MARINE OBSERVATIONS

STATION/POSITION TIME  TEMP    WIND        PRES    VSBY  WAVE
                       AIR SEA DIR/SP/G                  HT/PER
                 (UTC) (F)     (DEG/KT/KT) (MB)    (MI)  (FT/S)
BOSTON BUOY      0950   39 45  180/  6/  8 1010.7          3/10
BUZZARDS BAY     1000   44     220/ 10/ 12 1012.1F
NANTUCKET SOUND  0950   41 41  140/  4/  4 1012.1          1/12
MASS BAY-STELLWA 1004   40 44  210/  8/ 12 1010.9F  1 7/8  3/10
ISLE OF SHOALS   1000   38     220/ 13/ 15 1010.6F
S OF BLOCK IS    1055      47                N/A           3/10
$$

......................KEY.........................
  SKY/WX - SKY CONDITION/PRESENT WEATHER
  TMP    - TEMPERATURE IN FAHRENHEIT
  DWPT   - DEWPOINT IN FAHRENHEIT
  RH     - RELATIVE HUMIDITY IN PERCENT
  WIND   - DIRECTION AND SPEED IN MPH
  PRES   - MEAN SEA LEVEL PRESSURE IN INCHES OF HG
  WCI    - WIND CHILL INDEX
  VSB    - VISIBILITY IN MILES
  HX     - HEAT INDEX
  TC     - TEMPERATURE IN CELSIUS
  VRB    - VARIABLE WIND DIRECTION
  N/A    - NOT AVAILABLE




USA.gov is the U.S. government's official web portal to all federal, state and local government web resources and services.